Weather in Bozkurt

Turkey     37°49′33″N   29°36′35″E
В апреле 2022 года жителям России запретили посещать сайт meteo.paraplan.net по решению Генеральной прокуратуры. Аудитория сайта уменьшилась в 10 раз. Владельцы сайта не видят смысла в поддержке погодного сервера в таких условиях. Сайт будет закрыт в октябре.
temp.,
°C
wind,
m/s
gust,
m/s
humid.,
%
clouds,
%
prec.,
mm/h
press.,
hPa
HPBL,
m
30 september, fri
fri3000:00+18s22630 0.3 101622
03:00+17s22634 0.3 101622
06:00+17s22645 0.0 101621
09:00+22ssw12464 0.0 1017303
12:00+28wsw37300 0.0 10171952
15:00+30w610241 0.0 10162925
18:00+28w572829 0.0 1016930
21:00+22ssw22430 0.0 101914
1 october, sat
sat100:00+19sw11500 0.0 102011
03:00+17sw11580 0.0 102111
06:00+16sw01680 0.0 102211
09:00+21se11500 0.0 1022230
12:00+26nnw23280 0.0 10211111
15:00+29nw610180 0.0 10192045
18:00+27nnw57220 0.0 1019401
21:00+21sw11320 0.0 102011
2 october, sun
sun200:00+20wsw11350 0.0 101911
03:00+19s113830 0.0 101811
06:00+19s223930 0.0 101713
09:00+24ssw2228100 0.0 1015132
12:00+29w361994 0.0 10121566
15:00+31wsw913165 0.0 10083072
18:00+27wsw711240 0.0 10071278
21:00+20nw22430 0.0 100915
3 october, mon
mon300:00+18wnw356123 0.0 1010304
03:00+14wnw23814 0.0 101193
06:00+13nw238570 0.0 1012170
09:00+15nnw35620 0.0 1013704
12:00+19n55400 0.0 10121270
15:00+22n55320 0.0 10091611
18:00+21n45320 0.0 1009862
21:00+14n11470 0.0 101219
4 october, tue
tue400:00+11nnw11590 0.0 101314
03:00+9ne11690 0.0 101313
06:00+8ese11721 0.0 101312
09:00+12e22570 0.0 1014332
12:00+18ne22404 0.0 1012968
15:00+22n22315 0.0 10111314
18:00+20nw233321 0.0 1011215
21:00+15sw11445 0.0 101311